FW2402 Weather Reports


Display with metric or nautical units.
time (UTC)temp
F
wind
direction
speed
MPH
gust
MPH
rain 1hr
in
rain 24hr
in
rain mn
in
humidity
%
barometer
mb
20260507051021 69 0 0.0 1.0 0.00 0.00 0.00 92 1015.2
20260507050522 69 0 0.0 1.0 0.00 0.00 0.00 93 1015.2
20260507050036 69 0 0.0 0.0 0.00 0.00 0.00 93 1015.2
20260507045522 69 0 0.0 0.0 0.00 0.00 0.00 92 1015.3
20260507045023 69 0 0.0 0.0 0.00 0.00 0.00 92 1015.3
20260507044544 69 0 0.0 0.0 0.00 0.00 0.00 92 1015.4
20260507044020 70 0 0.0 0.0 0.00 0.00 0.00 93 1015.3
20260507043521 70 0 0.0 0.0 0.00 0.00 0.00 93 1015.5
20260507043042 70 0 0.0 0.0 0.00 0.00 0.00 92 1015.6
20260507042520 70 0 0.0 0.0 0.00 0.00 0.00 92 1015.6
20260507042019 70 0 0.0 0.0 0.00 0.00 0.00 92 1015.7
20260507041538 69 0 0.0 0.0 0.00 0.00 0.00 91 1015.9
20260507041020 70 0 0.0 0.0 0.00 0.00 0.00 92 1016.0
20260507040521 70 0 0.0 0.0 0.00 0.00 0.00 91 1015.6
20260507040041 70 0 0.0 0.0 0.00 0.00 0.00 91 1015.7
20260507035520 70 0 0.0 0.0 0.00 0.00 0.00 91 1015.6
20260507035020 70 0 0.0 0.0 0.00 0.00 0.00 90 1015.8
20260507034538 71 0 0.0 0.0 0.00 0.00 0.00 91 1015.8
20260507034020 71 0 0.0 0.0 0.00 0.00 0.00 91 1015.6
20260507033520 72 0 0.0 0.0 0.00 0.00 0.00 91 1015.6
20260507033035 72 0 0.0 0.0 0.00 0.00 0.00 90 1015.6
20260507032521 72 0 0.0 0.0 0.00 0.00 0.00 90 1015.7
20260507032019 72 0 0.0 0.0 0.00 0.00 0.00 90 1015.7
20260507031543 72 0 0.0 0.0 0.00 0.00 0.00 89 1015.8
20260507031020 72 0 0.0 0.0 0.00 0.00 0.00 88 1015.9
20260507030520 72 0 0.0 0.0 0.00 0.00 0.00 88 1015.8
20260507030042 73 0 0.0 0.0 0.00 0.00 0.00 87 1015.8
20260507025520 73 0 0.0 0.0 0.00 0.00 0.00 86 1015.8
20260507025020 74 0 0.0 0.0 0.00 0.00 0.00 86 1015.8
20260507024538 74 0 0.0 2.0 0.00 0.00 0.00 85 1015.7
20260507024019 75 0 0.0 3.0 0.00 0.00 0.00 85 1015.6
20260507023520 75 117 1.0 3.0 0.00 0.00 0.00 85 1015.5
20260507023038 75 134 1.0 3.0 0.00 0.00 0.00 85 1015.4
20260507022520 75 0 0.0 1.0 0.00 0.00 0.00 84 1015.3
20260507022021 75 0 0.0 2.0 0.00 0.00 0.00 85 1015.2
20260507021537 75 0 0.0 4.0 0.00 0.00 0.00 84 1015.0
20260507021020 75 267 1.0 6.0 0.00 0.00 0.00 84 1015.0
20260507020520 75 264 2.0 8.0 0.00 0.00 0.00 83 1015.0
20260507020035 75 284 2.0 8.0 0.00 0.00 0.00 82 1015.1
20260507015519 76 261 4.0 8.0 0.00 0.00 0.00 82 1015.0
20260507015020 76 281 3.0 8.0 0.00 0.00 0.00 81 1015.0
20260507014553 76 264 2.0 8.0 0.00 0.00 0.00 80 1015.0
20260507014018 76 279 4.0 8.0 0.00 0.00 0.00 80 1014.8
20260507013519 76 290 4.0 7.0 0.00 0.00 0.00 79 1014.8
20260507013041 77 261 3.0 7.0 0.00 0.00 0.00 78 1014.7
20260507012521 77 284 2.0 7.0 0.00 0.00 0.00 77 1014.6
20260507012023 77 274 3.0 7.0 0.00 0.00 0.00 76 1014.8
20260507011541 77 283 3.0 7.0 0.00 0.00 0.00 75 1014.8
20260507011020 78 289 3.0 7.0 0.00 0.00 0.00 75 1014.9
20260507010523 78 288 3.0 7.0 0.00 0.00 0.00 74 1014.9
20260507010042 78 259 4.0 7.0 0.00 0.00 0.00 74 1014.7
20260507005526 78 291 3.0 7.0 0.00 0.00 0.00 74 1014.7
20260507005025 78 265 4.0 9.0 0.00 0.00 0.00 73 1014.7
20260507004541 79 271 4.0 9.0 0.00 0.00 0.00 73 1014.7
20260507004020 79 263 5.0 9.0 0.00 0.00 0.00 73 1014.6
20260507003518 79 254 5.0 9.0 0.00 0.00 0.00 73 1014.6
20260507003035 80 261 4.0 9.0 0.00 0.00 0.00 74 1014.6
20260507002522 80 267 5.0 9.0 0.00 0.00 0.00 73 1014.5
20260507002020 80 273 4.0 10.0 0.00 0.00 0.00 73 1014.4
20260507001534 80 271 6.0 11.0 0.00 0.00 0.00 73 1014.4
20260507001022 81 285 5.0 11.0 0.00 0.00 0.00 72 1014.2
20260507000518 81 270 7.0 11.0 0.00 0.00 0.00 72 1014.3
20260507000044 81 285 6.0 10.0 0.00 0.00 0.00 71 1014.3
20260506235518 81 267 5.0 10.0 0.00 0.00 0.00 71 1014.2
20260506235017 82 269 5.0 10.0 0.00 0.00 0.00 71 1014.1
20260506234541 82 276 4.0 13.0 0.00 0.00 0.00 70 1014.2
20260506234018 83 290 7.0 13.0 0.00 0.00 0.00 68 1014.2
20260506233518 83 279 9.0 13.0 0.00 0.00 0.00 68 1014.1
20260506233037 84 265 7.0 10.0 0.00 0.00 0.00 69 1014.1
20260506232517 84 263 4.0 10.0 0.00 0.00 0.00 69 1014.2
20260506232017 84 279 6.0 11.0 0.00 0.00 0.00 68 1014.1
20260506231537 84 255 7.0 13.0 0.00 0.00 0.00 67 1014.1
20260506231021 84 267 7.0 14.0 0.00 0.00 0.00 67 1014.2
20260506230518 85 261 9.0 14.0 0.00 0.00 0.00 66 1014.0
20260506230036 85 268 7.0 11.0 0.00 0.00 0.00 65 1014.0
20260506225517 85 285 5.0 14.0 0.00 0.00 0.00 65 1013.9
20260506225018 86 281 7.0 14.0 0.00 0.00 0.00 65 1013.9
20260506224543 86 288 6.0 14.0 0.00 0.00 0.00 65 1013.9
20260506224017 86 280 8.0 14.0 0.00 0.00 0.00 65 1013.9
20260506223517 87 254 9.0 14.0 0.00 0.00 0.00 63 1013.9
20260506223041 87 252 8.0 13.0 0.00 0.00 0.00 63 1013.9
20260506222518 88 286 9.0 13.0 0.00 0.00 0.00 62 1013.9
20260506222018 88 273 7.0 13.0 0.00 0.00 0.00 62 1013.8
20260506221544 88 282 7.0 17.0 0.00 0.00 0.00 61 1013.9
20260506221017 90 256 10.0 17.0 0.00 0.00 0.00 56 1013.8
20260506220517 92 285 3.0 7.0 0.00 0.00 0.00 43 1013.8
20260506220042 91 244 2.0 6.0 0.00 0.00 0.00 43 1013.9
20260506215517 92 243 1.0 7.0 0.00 0.00 0.00 41 1013.8
20260506215017 94 258 1.0 9.0 0.00 0.00 0.00 40 1013.8
20260506214538 94 254 6.0 9.0 0.00 0.00 0.00 41 1013.7
20260506214016 93 278 0.0 3.0 0.00 0.00 0.00 39 1013.7
20260506213517 94 0 0.0 7.0 0.00 0.00 0.00 38 1013.8
20260506213036 94 0 2.0 9.0 0.00 0.00 0.00 39 1013.9
20260506212517 94 276 1.0 9.0 0.00 0.00 0.00 39 1013.9
20260506212019 95 248 2.0 5.0 0.00 0.00 0.00 37 1014.0
20260506211542 94 172 0.0 7.0 0.00 0.00 0.00 39 1013.9
20260506211018 94 160 1.0 7.0 0.00 0.00 0.00 40 1013.9
20260506210520 94 278 1.0 6.0 0.00 0.00 0.00 40 1013.9
20260506210044 94 43 3.0 8.0 0.00 0.00 0.00 38 1013.9
20260506205520 96 58 3.0 8.0 0.00 0.00 0.00 38 1013.9
20260506205018 96 103 1.0 7.0 0.00 0.00 0.00 38 1013.9
20260506204541 96 188 1.0 7.0 0.00 0.00 0.00 37 1013.9
20260506204017 95 222 1.0 9.0 0.00 0.00 0.00 38 1013.9
20260506203517 94 263 2.0 9.0 0.00 0.00 0.00 39 1013.9
20260506203048 94 158 2.0 9.0 0.00 0.00 0.00 40 1013.9
20260506202517 93 0 0.0 5.0 0.00 0.00 0.00 43 1014.0
20260506202017 92 170 0.0 4.0 0.00 0.00 0.00 41 1014.0
20260506201545 92 0 1.0 8.0 0.00 0.00 0.00 42 1014.1
20260506201018 91 298 1.0 10.0 0.00 0.00 0.00 42 1014.0
20260506200517 93 293 5.0 11.0 0.00 0.00 0.00 39 1014.1
20260506200037 94 263 7.0 11.0 0.00 0.00 0.00 40 1014.1
20260506195520 94 266 6.0 11.0 0.00 0.00 0.00 38 1014.1
20260506195020 94 182 0.0 3.0 0.00 0.00 0.00 39 1014.1
20260506194540 95 0 0.0 3.0 0.00 0.00 0.00 39 1014.2
20260506194018 93 98 0.0 3.0 0.00 0.00 0.00 38 1014.2
20260506193518 94 211 1.0 7.0 0.00 0.00 0.00 39 1014.3
20260506193042 94 53 1.0 8.0 0.00 0.00 0.00 38 1014.4
20260506192524 94 142 4.0 8.0 0.00 0.00 0.00 39 1014.5
20260506192020 94 242 1.0 7.0 0.00 0.00 0.00 40 1014.4
20260506191541 94 182 1.0 7.0 0.00 0.00 0.00 39 1014.6
20260506191017 95 213 2.0 7.0 0.00 0.00 0.00 40 1014.6
20260506190517 95 0 2.0 7.0 0.00 0.00 0.00 41 1014.6
20260506190038 94 278 1.0 8.0 0.00 0.00 0.00 41 1014.7
20260506185519 94 117 2.0 8.0 0.00 0.00 0.00 40 1014.8
20260506185020 94 150 2.0 8.0 0.00 0.00 0.00 41 1014.9
20260506184547 95 59 1.0 7.0 0.00 0.00 0.00 38 1014.9
20260506184017 93 121 3.0 8.0 0.00 0.00 0.00 40 1015.0
20260506183518 93 85 2.0 9.0 0.00 0.00 0.00 40 1015.1
20260506183034 92 167 4.0 9.0 0.00 0.00 0.00 42 1015.3
20260506182520 92 130 2.0 8.0 0.00 0.00 0.00 43 1015.3
20260506182018 93 262 3.0 8.0 0.00 0.00 0.00 42 1015.3
20260506181541 94 168 1.0 6.0 0.00 0.00 0.00 42 1015.2
20260506181017 92 170 1.0 8.0 0.00 0.00 0.00 44 1015.2
20260506180522 92 50 1.0 8.0 0.00 0.00 0.00 42 1015.2
20260506180040 92 107 3.0 8.0 0.00 0.00 0.00 44 1015.3
20260506175521 92 120 3.0 8.0 0.00 0.00 0.00 42 1015.4
20260506175020 92 119 4.0 8.0 0.00 0.00 0.00 44 1015.4
20260506174538 92 142 2.0 9.0 0.00 0.00 0.00 42 1015.5
20260506174019 91 0 1.0 9.0 0.00 0.00 0.00 43 1015.6
20260506173520 91 181 3.0 9.0 0.00 0.00 0.00 45 1015.7
20260506173046 90 285 3.0 12.0 0.00 0.00 0.00 47 1015.7
20260506172517 92 176 3.0 12.0 0.00 0.00 0.00 46 1015.8
20260506172024 90 132 1.0 6.0 0.00 0.00 0.00 48 1015.7
20260506171550 92 273 2.0 11.0 0.00 0.00 0.00 45 1015.8
20260506171021 91 174 2.0 12.0 0.00 0.00 0.00 48 1015.9
20260506170521 89 268 6.0 12.0 0.00 0.00 0.00 49 1015.9
20260506170035 89 269 2.0 8.0 0.00 0.00 0.00 47 1015.9
20260506165521 89 241 0.0 10.0 0.00 0.00 0.00 48 1015.9
20260506165020 90 257 2.0 10.0 0.00 0.00 0.00 47 1016.0
20260506164543 91 166 2.0 10.0 0.00 0.00 0.00 48 1016.0
20260506164023 89 76 3.0 10.0 0.00 0.00 0.00 47 1016.0
20260506163523 90 164 3.0 9.0 0.00 0.00 0.00 48 1016.2
20260506163058 90 27 2.0 7.0 0.00 0.00 0.00 45 1016.2
20260506162522 89 135 2.0 9.0 0.00 0.00 0.00 50 1016.3
20260506162017 88 66 3.0 9.0 0.00 0.00 0.00 50 1016.3
20260506161544 88 104 2.0 9.0 0.00 0.00 0.00 49 1016.4
20260506161017 87 219 2.0 6.0 0.00 0.00 0.00 51 1016.5
20260506160523 87 275 2.0 9.0 0.00 0.00 0.00 53 1016.5
20260506160042 88 166 2.0 9.0 0.00 0.00 0.00 51 1016.5
20260506155520 88 150 1.0 9.0 0.00 0.00 0.00 53 1016.6
20260506155017 88 211 1.0 9.0 0.00 0.00 0.00 52 1016.7
20260506154540 87 242 4.0 9.0 0.00 0.00 0.00 53 1016.7
20260506154022 86 153 3.0 8.0 0.00 0.00 0.00 53 1016.6
20260506153516 87 142 1.0 9.0 0.00 0.00 0.00 54 1016.5
20260506153039 87 166 2.0 9.0 0.00 0.00 0.00 52 1016.6
20260506152521 87 163 2.0 8.0 0.00 0.00 0.00 53 1016.6
20260506152017 87 111 2.0 7.0 0.00 0.00 0.00 54 1016.6
20260506151535 87 206 2.0 8.0 0.00 0.00 0.00 55 1016.6
20260506151019 85 113 4.0 8.0 0.00 0.00 0.00 56 1016.5
20260506150520 86 149 3.0 11.0 0.00 0.00 0.00 55 1016.4
20260506150040 85 163 4.0 11.0 0.00 0.00 0.00 57 1016.5
20260506145521 85 153 2.0 9.0 0.00 0.00 0.00 58 1016.5
20260506145021 84 219 4.0 10.0 0.00 0.00 0.00 58 1016.3
20260506144538 84 235 2.0 10.0 0.00 0.00 0.00 61 1016.5
20260506144017 84 91 3.0 10.0 0.00 0.00 0.00 61 1016.4
20260506143516 83 182 5.0 10.0 0.00 0.00 0.00 60 1016.3
20260506143037 83 169 3.0 10.0 0.00 0.00 0.00 63 1016.3
20260506142516 83 129 3.0 8.0 0.00 0.00 0.00 63 1016.3
20260506142017 82 162 2.0 8.0 0.00 0.00 0.00 64 1016.3
20260506141534 82 180 4.0 8.0 0.00 0.00 0.00 65 1016.3
20260506141017 82 133 2.0 10.0 0.00 0.00 0.00 70 1016.4
20260506140522 80 170 4.0 10.0 0.00 0.00 0.00 68 1016.4
20260506140042 80 168 4.0 9.0 0.00 0.00 0.00 69 1016.4
20260506135517 79 117 5.0 9.0 0.00 0.00 0.00 71 1016.3
20260506135016 79 117 4.0 9.0 0.00 0.00 0.00 72 1016.3
20260506134532 79 173 3.0 11.0 0.00 0.00 0.00 74 1016.3
20260506134018 78 167 5.0 11.0 0.00 0.00 0.00 74 1016.4
20260506133519 78 184 5.0 10.0 0.00 0.00 0.00 76 1016.4
20260506133037 77 118 5.0 9.0 0.00 0.00 0.00 77 1016.3
20260506132516 77 145 4.0 10.0 0.00 0.00 0.00 79 1016.4
20260506132020 76 173 5.0 10.0 0.00 0.00 0.00 81 1016.3
20260506131533 75 171 5.0 9.0 0.00 0.00 0.00 80 1016.1
20260506131019 75 112 3.0 8.0 0.00 0.00 0.00 81 1016.2
20260506130520 75 123 2.0 8.0 0.00 0.00 0.00 81 1016.1
20260506130036 74 128 3.0 8.0 0.00 0.00 0.00 82 1016.2
20260506125517 74 118 4.0 7.0 0.00 0.00 0.00 82 1016.1
20260506125017 73 173 3.0 8.0 0.00 0.00 0.00 83 1016.1
20260506124538 72 126 3.0 8.0 0.00 0.00 0.00 83 1016.0
20260506124016 72 134 3.0 9.0 0.00 0.00 0.00 84 1015.9
20260506123516 71 136 4.0 9.0 0.00 0.00 0.00 85 1015.9
20260506123036 71 98 2.0 7.0 0.00 0.00 0.00 86 1015.9
20260506122516 70 115 2.0 6.0 0.00 0.00 0.00 86 1015.8
20260506122016 69 138 1.0 5.0 0.00 0.00 0.00 88 1015.7
20260506121534 68 156 1.0 4.0 0.00 0.00 0.00 88 1015.8
20260506121017 67 0 1.0 4.0 0.00 0.00 0.00 89 1015.6
20260506120517 66 144 2.0 4.0 0.00 0.00 0.00 90 1015.5
20260506120045 65 125 2.0 4.0 0.00 0.00 0.00 90 1015.5
20260506115517 65 117 1.0 3.0 0.00 0.00 0.00 91 1015.5
20260506115016 64 0 0.0 0.0 0.00 0.00 0.00 91 1015.5
20260506114537 63 0 0.0 0.0 0.00 0.00 0.00 91 1015.4
20260506114017 63 0 0.0 0.0 0.00 0.00 0.00 91 1015.4
20260506113518 62 0 0.0 0.0 0.00 0.00 0.00 92 1015.5
20260506113035 62 0 0.0 0.0 0.00 0.00 0.00 92 1015.4
20260506112519 61 0 0.0 0.0 0.00 0.00 0.00 93 1015.5
20260506112019 60 0 0.0 0.0 0.00 0.00 0.00 93 1015.5
20260506111543 60 0 0.0 0.0 0.00 0.00 0.00 92 1015.4
20260506111017 60 0 0.0 0.0 0.00 0.00 0.00 93 1015.4
20260506110517 60 0 0.0 0.0 0.00 0.00 0.00 93 1015.4
20260506110041 60 0 0.0 0.0 0.00 0.00 0.00 93 1015.4
20260506105520 59 0 0.0 0.0 0.00 0.00 0.00 92 1015.3
20260506105021 60 0 0.0 0.0 0.00 0.00 0.00 93 1015.2
20260506104544 59 0 0.0 0.0 0.00 0.00 0.00 92 1015.2
20260506104020 59 0 0.0 0.0 0.00 0.00 0.00 92 1015.1
20260506103520 60 0 0.0 0.0 0.00 0.00 0.00 91 1015.0
20260506103037 59 0 0.0 0.0 0.00 0.00 0.00 91 1015.0
20260506102523 60 0 0.0 0.0 0.00 0.00 0.00 91 1014.9
20260506102020 60 0 0.0 0.0 0.00 0.00 0.00 90 1014.8
20260506101537 61 0 0.0 0.0 0.00 0.00 0.00 91 1014.8
20260506101020 61 0 0.0 0.0 0.00 0.00 0.00 91 1014.9
20260506100520 61 0 0.0 0.0 0.00 0.00 0.00 91 1014.9
20260506100039 61 0 0.0 0.0 0.00 0.00 0.00 91 1014.7
20260506095524 61 0 0.0 0.0 0.00 0.00 0.00 92 1014.8
20260506095021 60 0 0.0 0.0 0.00 0.00 0.00 92 1014.9
20260506094546 60 0 0.0 0.0 0.00 0.00 0.00 91 1015.0
20260506094017 60 0 0.0 0.0 0.00 0.00 0.00 90 1015.0
20260506093523 61 0 0.0 0.0 0.00 0.00 0.00 90 1014.9
20260506093102 61 0 0.0 0.0 0.00 0.00 0.00 91 1014.7
20260506092520 61 0 0.0 0.0 0.00 0.00 0.00 91 1014.8
20260506092020 61 0 0.0 0.0 0.00 0.00 0.00 91 1014.6
20260506091545 60 0 0.0 0.0 0.00 0.00 0.00 92 1014.8
20260506091021 60 0 0.0 0.0 0.00 0.00 0.00 91 1014.9
20260506090520 60 0 0.0 0.0 0.00 0.00 0.00 91 1014.8
20260506090040 60 0 0.0 0.0 0.00 0.00 0.00 91 1014.7
20260506085523 60 0 0.0 0.0 0.00 0.00 0.00 91 1014.7
20260506085021 60 0 0.0 0.0 0.00 0.00 0.00 90 1014.7
20260506084536 60 0 0.0 0.0 0.00 0.00 0.00 90 1014.8
20260506084022 60 0 0.0 0.0 0.00 0.00 0.00 90 1014.7
20260506083520 61 0 0.0 0.0 0.00 0.00 0.00 90 1014.7
20260506083040 61 0 0.0 0.0 0.00 0.00 0.00 90 1014.6
20260506082520 60 0 0.0 0.0 0.00 0.00 0.00 90 1014.6
20260506082018 60 0 0.0 0.0 0.00 0.00 0.00 90 1014.7
20260506081541 61 0 0.0 0.0 0.00 0.00 0.00 89 1014.6
20260506081022 61 0 0.0 0.0 0.00 0.00 0.00 90 1014.6
20260506080521 61 0 0.0 0.0 0.00 0.00 0.00 89 1014.6
20260506073521 61 0 0.0 0.0 0.00 0.00 0.00 90 1014.9
20260506073039 61 0 0.0 0.0 0.00 0.00 0.00 90 1014.9
20260506072519 61 0 0.0 0.0 0.00 0.00 0.00 90 1015.0
20260506072020 60 0 0.0 0.0 0.00 0.00 0.00 90 1015.0
20260506071536 60 0 0.0 0.0 0.00 0.00 0.00 90 1015.1
20260506071021 60 0 0.0 0.0 0.00 0.00 0.00 89 1015.1
20260506070523 61 0 0.0 0.0 0.00 0.00 0.00 89 1015.0
20260506062021 63 0 0.0 0.0 0.00 0.00 0.00 86 1015.3
20260506061555 63 0 0.0 0.0 0.00 0.00 0.00 86 1015.3
20260506061019 63 0 0.0 0.0 0.00 0.00 0.00 86 1015.3
20260506060518 63 0 0.0 0.0 0.00 0.00 0.00 86 1015.5